Home > Weather > Niterói > Past weeks

Flag for Brazil Weather for the Past 2 Weeks in Niterói, Rio de Janeiro, Brazil

Now
88 °F

Partly sunny.


Feels Like: 96 °F
Forecast: N/A
Wind: 14 mph from South

Location: Rio De Janeiro Airport

Current Time: Feb 6, 2016 at 7:13:46 PM

Latest Report: Feb 6, 2016 at 6:00 PM


Visibility: N/A

Pressure: 29.92 "Hg

Humidity: 62%

Dew point: 73 °F

Location of NiteróiLocation

Historic Weather in Niterói — Graph

°F

Niterói Temperature Yesterday

Maximum temperature yesterday: 95 °F (at 2:00 PM)
Minimum temperature yesterday: 77 °F (at 2:00 AM)
Average temperature yesterday: 86 °F

High & Low Weather Summary for the Past Weeks

 TemperatureHumidityPressure
High99 °F (Jan 31, 2:00 PM)100% (Jan 22, 9:00 PM)30.01 "Hg (Jan 22, 9:00 PM)
Low45 °F (Jan 28, 5:00 PM)18% (Jan 28, 2:00 PM)29.71 "Hg (Jan 26, 5:00 PM)
Average83 °F79%29.91 "Hg
* Reported Jan 22 6:00 PM — Feb 6 6:00 PM, Niterói, Weather by CustomWeather, © 2016

Note: Actual official high and low records may vary slightly from our data, if they occured in-between our weather recording intervals... More about our weather records

Advertising

Niterói Weather History for the Previous 24 Hours

 ConditionsComfort  
Time TempWeatherWind HumidityBarometerVisibility
6:00 PM
Sat, Feb 6
88 °FPartly sunny.14 mph62%29.92 "HgN/A
5:00 PM93 °FPassing clouds.13 mph53%29.95 "HgN/A
4:00 PM91 °FScattered clouds.15 mph59%29.95 "HgN/A
3:00 PM93 °FScattered clouds.17 mph59%29.95 "HgN/A
1:00 PM93 °FPassing clouds.16 mph59%29.98 "HgN/A
12:00 PM91 °FScattered clouds.12 mph63%30.01 "HgN/A
11:00 AM91 °FPassing clouds.8 mph63%30.01 "HgN/A
10:00 AM88 °FPassing clouds.6 mph75%30.01 "HgN/A
9:00 AM88 °FSunny.2 mph66%30.01 "Hg10 mi
8:00 AM84 °FSunny.3 mph74%29.98 "Hg10 mi
7:00 AM79 °FSunny.3 mph84%29.95 "Hg10 mi
6:00 AM79 °FClear.2 mph84%29.95 "Hg10 mi
5:00 AM79 °FClear.2 mph84%29.92 "Hg10 mi
4:00 AM79 °FClear.2 mph84%29.92 "Hg10 mi
3:00 AM81 °FClear.2 mph84%29.92 "Hg10 mi
2:00 AM81 °FClear.3 mph84%29.95 "Hg10 mi
1:00 AM82 °FClear.6 mph70%29.95 "Hg10 mi
12:00 AM82 °FClear.3 mph70%29.95 "Hg10 mi
10:00 PM
Fri, Feb 5
86 °FClear.2 mph62%29.92 "Hg10 mi
9:00 PM88 °FClear.7 mph59%29.92 "Hg10 mi
8:00 PM88 °FClear.8 mph59%29.89 "Hg10 mi
7:00 PM88 °FPassing clouds.8 mph62%29.86 "HgN/A
Weather by CustomWeather, © 2016

See weather overviewHow to use our weather pages